Location: Rodanthe
(35.5920°N, 75.4670°W)
Time: 10:26:41
(UTC-05:00)

ISS - All Passes

Search period start: 20 February 2018 00:00
Search period end: 02 March 2018 00:00
Orbit: 403 x 407 km, 51.6° (Epoch: 21 February)

Date Brightness Start Highest point End Pass type
(mag) Time Alt. Az. Time Alt. Az. Time Alt. Az.
20 Feb - 06:59:37 10° SSE 07:00:44 11° SE 07:01:53 10° ESE daylight
20 Feb - 08:33:39 10° WSW 08:36:51 54° NW 08:40:04 10° NE daylight
20 Feb - 15:03:53 10° NW 15:07:01 41° NE 15:10:07 10° ESE daylight
20 Feb - 16:41:16 10° W 16:43:12 15° SW 16:45:08 10° SSW daylight
21 Feb - 07:41:25 10° SW 07:44:39 69° SE 07:47:54 10° NE daylight
21 Feb - 09:19:30 10° WNW 09:21:26 15° NNW 09:23:24 10° N daylight
21 Feb - 14:11:59 10° NNW 14:14:41 23° NNE 14:17:22 10° E daylight
21 Feb - 15:48:15 10° WNW 15:51:10 30° SW 15:54:04 10° SSE daylight
22 Feb - 06:49:37 10° SSW 06:52:32 30° SE 06:55:27 10° ENE daylight
22 Feb - 08:26:20 10° W 08:29:01 23° NNW 08:31:43 10° NNE daylight
22 Feb - 13:20:19 10° N 13:22:15 15° NNE 13:24:12 10° ENE daylight
22 Feb - 14:55:48 10° NW 14:59:03 69° SW 15:02:16 10° SE daylight
23 Feb - 05:58:32 10° SSE 06:00:29 15° SE 06:02:25 10° E visible
23 Feb - 07:33:33 10° WSW 07:36:41 42° NW 07:39:48 10° NE daylight
23 Feb - 14:03:36 10° NW 14:06:49 54° NE 14:10:01 10° ESE daylight
23 Feb - 15:41:48 10° WSW 15:42:55 11° SW 15:44:03 10° SSW daylight
24 Feb - 06:41:08 10° SW 06:44:24 89° WNW 06:47:41 10° NE daylight
24 Feb - 08:19:44 10° NW 08:21:18 13° NNW 08:22:52 10° N daylight
24 Feb - 13:11:37 10° NNW 13:14:30 28° NE 13:17:21 10° E daylight
24 Feb - 14:48:12 10° WNW 14:50:52 23° SW 14:53:32 10° S daylight
25 Feb - 05:49:08 10° SSW 05:52:13 40° SE 05:55:19 10° ENE visible
25 Feb - 07:26:20 10° W 07:28:48 20° NNW 07:31:17 10° NNE daylight
25 Feb - 12:19:48 10° NNW 12:22:04 17° NNE 12:24:19 10° ENE daylight
25 Feb - 13:55:33 10° WNW 13:58:44 51° SW 14:01:54 10° SSE daylight
26 Feb - 04:57:41 10° S 05:00:06 19° SE 05:02:30 10° E visible
26 Feb - 06:33:23 10° WSW 06:36:23 33° NW 06:39:25 10° NNE daylight
26 Feb - 11:28:24 10° N 11:29:32 11° NNE 11:30:39 10° NE daylight
26 Feb - 13:03:14 10° NW 13:06:30 71° NE 13:09:45 10° SE daylight
27 Feb - 05:40:48 10° SW 05:44:04 68° NW 05:47:19 10° NE visible
27 Feb - 07:20:02 10° NW 07:21:03 11° NNW 07:22:05 10° N daylight
27 Feb - 12:11:08 10° NNW 12:14:10 34° NE 12:17:12 10° ESE daylight
27 Feb - 13:48:07 10° W 13:50:27 18° SW 13:52:46 10° S daylight
28 Feb - 04:48:36 10° SSW 04:51:47 54° SE 04:55:00 10° ENE visible
28 Feb - 06:26:16 10° WNW 06:28:30 17° NNW 06:30:43 10° NNE daylight
28 Feb - 11:19:13 10° NNW 11:21:44 20° NNE 11:24:15 10° E daylight
28 Feb - 12:55:15 10° WNW 12:58:18 38° SW 13:01:21 10° SSE daylight
01 Mar - 03:56:53 10° S 03:59:37 24° SE 04:02:20 10° ENE visible
01 Mar - 05:33:09 10° W 05:36:01 27° NW 05:38:52 10° NNE visible
01 Mar - 10:27:34 10° N 10:29:12 13° NNE 10:30:49 10° NE daylight
01 Mar - 12:02:48 10° NW 12:06:04 87° SW 12:09:19 10° SE daylight
